Location: Finnegan
(51.1333°N, 112.0833°W)
Time: 19:49:06
(UTC+00:00)

Envisat - Pass Details

Date: 04 December 2021
Orbit: 764 x 766 km, 98.2° (Epoch: 26 January)

Event Time Altitude Azimuth Distance (km) Brightness Sun altitude
Rises 13:50:14 0° 7° (N) 3,248 6.1 -12.5°
Reaches altitude 10° 13:52:48 10° 357° (N) 2,317 5.3 -12.1°
Maximum altitude 13:57:08 29° 299° (WNW) 1,388 3.8 -11.5°
Drops below altitude 10° 14:01:26 10° 240° (WSW) 2,303 5.1 -10.8°
Sets 14:03:59 0° 230° (SW) 3,225 6.0 -10.5°
